Location: D?uga
(50.2667°N, 19.7833°E)
Time: 02:22:27
(UTC+00:00)

ATLAS CENTAUR R/B - Pass Details

Date: 23 May 2024
Orbit: 442 x 588 km, 64.6° (Epoch: 18 June)

Event Time Altitude Azimuth Distance (km) Brightness Sun altitude
Rises 01:41:11 0° 167° (SSE) 2,423 4.3 -8.3°
Reaches altitude 10° 01:44:31 10° 131° (SE) 1,568 3.7 -8.0°
Maximum altitude 01:45:40 11° 112° (ESE) 1,496 3.8 -7.9°
Drops below altitude 10° 01:46:49 10° 92° (E) 1,584 4.3 -7.7°
Sets 01:50:13 0° 58° (ENE) 2,489 6.6 -7.4°
